Date String (YYYY-MM-DD hh:mm:ss) UTC,Instrument flags,Ambient pressure (hPa),Sample flow (lpm),Bypass flow (lpm),Sample temperature (°C),Ambient temperature (°C),ASC tube jacket temperature (°C),LED temperature (°C),Box temperature (°C),Sample RH (%),Span deviation,Mass concentration (μg/m³),Mass concentration (μg/m³),Mass concentration (μg/m³)
DateTimeUTC,F1_M11,P_M11,Q1_M11,Q2_M11,T1_M11,T2_M11,T3_M11,T4_M11,T5_M11,U1_M11,ZSPAN_M11,X0_M11,X2_M11,X1_M11
2022-01-28 01:00:00,,0836.0,5.00,0.00,21.7,21.1,00.0,30.8,23.3,10.2,0000.0,0006.89,0004.34,0004.15
2022-01-28 01:01:00,,0836.0,5.00,0.00,21.7,21.0,00.0,30.8,23.3,10.2,0000.0,0006.90,0004.33,0004.13
2022-01-28 01:02:00,,0835.9,4.99,0.00,21.6,21.0,00.0,30.8,23.2,10.2,0000.0,0006.79,0004.32,0004.12
2022-01-28 01:03:00,,0836.0,5.00,0.00,21.6,20.9,00.0,30.7,23.2,10.2,0000.0,0006.90,0004.32,0004.10
2022-01-28 01:04:00,,0836.0,4.99,0.00,21.6,20.9,00.0,30.7,23.2,10.2,0000.0,0006.85,0004.29,0004.08
2022-01-28 01:05:00,,0835.9,5.00,0.00,21.6,20.8,00.0,30.7,23.1,10.2,0000.0,0006.78,0004.26,0004.07
2022-01-28 01:06:00,,0836.0,5.01,0.00,21.6,21.2,00.0,30.7,23.3,10.2,0000.0,0006.63,0004.22,0004.05
2022-01-28 01:07:00,,0836.0,5.01,0.00,21.7,22.0,00.0,30.7,23.5,10.2,0000.0,0006.02,0004.18,0004.04
2022-01-28 01:08:00,,0836.0,4.99,0.00,21.9,22.7,00.0,30.8,23.8,10.1,0000.0,0004.85,0004.13,0004.01
2022-01-28 01:09:00,,0836.0,5.01,0.00,22.0,22.8,00.0,30.8,24.0,10.0,0000.0,0004.76,0004.09,0003.99
2022-01-28 01:10:00,,0835.9,4.99,0.00,22.0,22.5,00.0,30.8,23.9,10.0,0000.0,0005.04,0004.09,0003.98
2022-01-28 01:11:00,,0835.9,5.00,0.00,22.0,22.2,00.0,30.9,23.8,10.0,0000.0,0005.36,0004.10,0003.98
2022-01-28 01:12:00,,0835.9,4.99,0.00,22.0,21.9,00.0,30.9,23.7,10.0,0000.0,0005.34,0004.09,0003.99
2022-01-28 01:13:00,,0836.0,5.01,0.00,21.9,21.7,00.0,30.9,23.6,10.0,0000.0,0005.42,0004.11,0003.99
2022-01-28 01:14:00,,0835.9,5.01,0.00,21.9,21.6,00.0,30.9,23.5,10.1,0000.0,0005.48,0004.13,0004.00
2022-01-28 01:15:00,,0835.9,4.99,0.00,21.8,21.4,00.0,30.8,23.5,10.1,0000.0,0005.49,0004.15,0004.01
2022-01-28 01:16:00,,0835.9,5.00,0.00,21.8,21.3,00.0,30.8,23.4,10.1,0000.0,0005.55,0004.17,0004.03
2022-01-28 01:17:00,,0835.9,5.00,0.00,21.8,21.2,00.0,30.8,23.3,10.2,0000.0,0005.66,0004.20,0004.05
2022-01-28 01:18:00,,0835.9,5.01,0.00,21.7,21.1,00.0,30.8,23.3,10.2,0000.0,0005.75,0004.23,0004.07
2022-01-28 01:19:00,,0836.0,4.99,0.00,21.7,21.0,00.0,30.8,23.3,10.2,0000.0,0005.82,0004.26,0004.09
2022-01-28 01:20:00,,0836.0,5.00,0.00,21.6,20.9,00.0,30.8,23.2,10.3,0000.0,0005.91,0004.28,0004.11
2022-01-28 01:21:00,,0836.0,5.01,0.00,21.6,20.9,00.0,30.8,23.2,10.3,0000.0,0005.76,0004.30,0004.13
2022-01-28 01:22:00,,0836.0,5.00,0.00,21.6,20.8,00.0,30.7,23.2,10.3,0000.0,0005.50,0004.32,0004.14
2022-01-28 01:23:00,,0836.1,5.00,0.00,21.5,20.9,00.0,30.7,23.2,10.3,0000.0,0005.65,0004.35,0004.16
2022-01-28 01:24:00,,0836.1,5.00,0.00,21.6,21.5,00.0,30.7,23.4,10.2,0000.0,0005.96,0004.40,0004.20
2022-01-28 01:25:00,,0836.1,5.01,0.00,21.8,22.2,00.0,30.8,23.7,10.1,0000.0,0007.17,0004.42,0004.22
2022-01-28 01:26:00,,0836.2,4.99,0.00,21.9,22.8,00.0,30.8,23.9,10.0,0000.0,0007.80,0004.45,0004.25
2022-01-28 01:27:00,,0836.2,5.01,0.00,22.0,22.7,00.0,30.8,24.0,10.0,0000.0,0007.92,0004.50,0004.27
2022-01-28 01:28:00,,0836.1,5.00,0.00,22.0,22.4,00.0,30.9,23.8,10.0,0000.0,0008.07,0004.56,0004.28
2022-01-28 01:29:00,,0836.2,5.00,0.00,22.0,22.1,00.0,30.9,23.7,10.0,0000.0,0008.26,0004.64,0004.31
2022-01-28 01:30:00,,0836.2,4.99,0.00,21.9,21.9,00.0,30.9,23.6,10.0,0000.0,0008.46,0004.71,0004.34
2022-01-28 01:31:00,,0836.2,5.01,0.00,21.9,21.6,00.0,30.9,23.5,10.0,0000.0,0008.62,0004.78,0004.38
2022-01-28 01:32:00,,0836.2,5.00,0.00,21.8,21.5,00.0,30.9,23.4,10.0,0000.0,0008.81,0004.88,0004.41
2022-01-28 01:33:00,,0836.2,5.01,0.00,21.8,21.3,00.0,30.9,23.4,10.0,0000.0,0009.10,0005.02,0004.47
2022-01-28 01:34:00,,0836.2,5.00,0.00,21.7,21.1,00.0,30.8,23.3,10.0,0000.0,0009.31,0005.09,0004.51
2022-01-28 01:35:00,,0836.2,5.00,0.00,21.7,21.0,00.0,30.8,23.2,10.0,0000.0,0009.36,0005.11,0004.54
2022-01-28 01:36:00,,0836.2,5.00,0.00,21.6,20.9,00.0,30.8,23.1,10.1,0000.0,0008.78,0005.17,0004.57
2022-01-28 01:37:00,,0836.2,4.99,0.00,21.6,20.8,00.0,30.8,23.1,10.1,0000.0,0008.49,0005.24,0004.62
2022-01-28 01:38:00,,0836.2,5.01,0.00,21.5,20.8,00.0,30.7,23.1,10.1,0000.0,0008.55,0005.29,0004.69
2022-01-28 01:39:00,,0836.2,5.01,0.00,21.6,21.2,00.0,30.8,23.2,10.1,0000.0,0008.63,0005.35,0004.76
2022-01-28 01:40:00,,0836.2,5.01,0.00,21.7,21.9,00.0,30.8,23.5,10.0,0000.0,0008.63,0005.39,0004.81
2022-01-28 01:41:00,,0836.2,4.99,0.00,21.9,22.7,00.0,30.8,23.8,09.9,0000.0,0008.71,0005.47,0004.86
2022-01-28 01:42:00,,0836.2,5.01,0.00,22.0,23.0,00.0,30.9,24.0,09.8,0000.0,0008.82,0005.53,0004.92
2022-01-28 01:43:00,,0836.2,4.98,0.00,22.0,22.6,00.0,30.9,23.9,09.7,0000.0,0008.83,0005.55,0004.97
2022-01-28 01:44:00,,0836.2,5.00,0.00,22.0,22.3,00.0,30.9,23.8,09.7,0000.0,0009.01,0005.55,0005.04
2022-01-28 01:45:00,,0836.2,5.00,0.00,22.0,22.0,00.0,30.9,23.6,09.7,0000.0,0009.02,0005.62,0005.09
2022-01-28 01:46:00,,0836.2,5.01,0.00,21.9,21.8,00.0,30.9,23.6,09.8,0000.0,0009.39,0005.72,0005.15
2022-01-28 01:47:00,,0836.2,4.98,0.00,21.9,21.5,00.0,30.9,23.5,09.8,0000.0,0009.59,0005.81,0005.22
2022-01-28 01:48:00,,0836.2,5.00,0.00,21.8,21.4,00.0,30.9,23.4,09.8,0000.2,0009.63,0005.87,0005.25
2022-01-28 01:49:00,,0836.2,5.00,0.00,21.8,21.2,00.0,30.8,23.4,09.9,0000.6,0009.66,0005.88,0005.26
2022-01-28 01:50:00,,0836.1,5.00,0.00,21.7,21.1,00.0,30.8,23.3,10.0,0000.0,0009.62,0005.85,0005.23
2022-01-28 01:51:00,,0836.0,5.01,0.00,21.7,21.0,00.0,30.8,23.2,10.0,0000.0,0010.21,0005.83,0005.22
2022-01-28 01:52:00,,0836.0,4.98,0.00,21.6,20.9,00.0,30.8,23.1,10.0,0000.0,0010.71,0005.78,0005.21
2022-01-28 01:53:00,,0836.0,5.00,0.00,21.6,20.8,00.0,30.8,23.1,10.0,0000.0,0010.59,0005.74,0005.20
2022-01-28 01:54:00,,0836.0,5.01,0.00,21.5,20.8,00.0,30.7,23.0,10.1,0000.0,0010.69,0005.71,0005.17
2022-01-28 01:55:00,,0836.1,4.99,0.00,21.6,21.5,00.0,30.7,23.3,10.1,0000.0,0010.69,0005.68,0005.12
2022-01-28 01:56:00,,0836.1,5.00,0.00,21.7,22.3,00.0,30.8,23.6,10.0,0000.0,0010.88,0005.69,0005.13
2022-01-28 01:57:00,,0836.1,5.00,0.00,21.9,22.9,00.0,30.8,23.9,09.9,0000.0,0011.38,0005.68,0005.13
2022-01-28 01:58:00,,0836.1,4.99,0.00,22.0,22.7,00.0,30.8,23.9,09.8,0000.0,0011.24,0005.66,0005.15
2022-01-28 01:59:00,,0836.2,5.00,0.00,22.0,22.4,00.0,30.9,23.8,09.8,0000.0,0011.28,0005.72,0005.22
